Weather History for KHJO - January, 2014

Change the Weather History Date:

Thursday, January 16, 2014

  Actual Average Record
Temperature  
Mean Temperature 50 °F 45 °F  
Max Temperature 69 °F 54 °F 69 °F (2014)
Min Temperature 31 °F 36 °F 21 °F (1963)
Degree Days  
Heating Degree Days 15    
Month to date heating degree days 282  
Since 1 July heating degree days 1307  
Cooling Degree Days 0    
Month to date cooling degree days 0  
Year to date cooling degree days 0  
Moisture  
Dew Point 35 °F    
Average Humidity 67    
Maximum Humidity 96    
Minimum Humidity 37    
Precipitation  
Precipitation 0.00 in 0.07 in 0.08 in (1999)
Month to date precipitation 0.00 1.41  
Year to date precipitation 0.00 1.41  
Since 1 July precipitation 0.39 4.75  
Snow  
Snow 0.00 in - - ()
Month to date snowfall 0.0  
Since 1 July snowfall 0.0  
Snow Depth 0.00 in    
Sea Level Pressure  
Sea Level Pressure 30.23 in    
Wind  
Wind Speed 1 mph (East)    
Max Wind Speed 6 mph    
Max Gust Speed 8 mph    
Visibility 2 miles    
Events Fog    
T = Trace of Precipitation, MM = Missing Value Source: NWS Daily Summary

Daily Weather History Graph

Daily Weather History Graph

Search for Another Location

Airport or City:

Trip Planner

Search our weather history database for the weather conditions in past years. The results will help you decide how hot, cold, wet, or windy it might be!

Date:

Astronomy

Jan. 16, 2014 Rise Set
Actual Time 7:08 AM PST 5:08 PM PST
Civil Twilight 6:40 AM PST 5:36 PM PST
Nautical Twilight 6:09 AM PST 6:07 PM PST
Astronomical Twilight 5:38 AM PST 6:38 PM PST
Moon 6:01 PM PST (1/16) 7:07 AM PST (1/16)
Length of Visible Light 10h 55m
Length of Day
9h 59m
Full, 100% of the Moon is Illuminated
Jan 16
Full
Jan 23
Last Quarter
Jan 30
New
Feb 6
First Quarter
Feb 14
Full

Hourly Weather History & Observations

Time (PST) Temp. Windchill Dew Point Humidity Pressure Visibility Wind Dir Wind Speed Gust Speed Precip Events Conditions
12:48 AM 39.2 °F - 35.6 °F 87% 30.24 in 1.5 mi North - - N/A   Clear
12:53 AM 37.9 °F - 35.1 °F 89% 30.25 in 1.0 mi North - - N/A   Clear
1:53 AM 37.9 °F - 35.1 °F 89% 30.26 in 1.0 mi Calm Calm - N/A   Clear
2:24 AM 37.9 °F - 35.1 °F 89% 30.25 in 0.8 mi Calm Calm - N/A   Clear
2:31 AM 37.0 °F - 35.1 °F 93% 30.25 in 1.2 mi Calm Calm - N/A   Clear
2:53 AM 37.0 °F - 34.0 °F 89% 30.25 in 1.0 mi Calm Calm - N/A   Clear
3:00 AM 36.0 °F - 34.0 °F 93% 30.24 in 0.5 mi Calm Calm - N/A Fog Fog
3:07 AM 34.0 °F - 32.0 °F 92% 30.24 in 0.2 mi Calm Calm - N/A Fog Fog
3:26 AM 35.1 °F 32.2 °F 34.0 °F 96% 30.24 in 1.0 mi ESE 3.5 mph - N/A   Mist
3:32 AM 35.1 °F - 34.0 °F 96% 30.24 in 0.8 mi Calm Calm - N/A   Mist
3:42 AM 34.0 °F - 32.0 °F 92% 30.24 in 0.2 mi Calm Calm - N/A Fog Fog
3:53 AM 35.1 °F - 33.1 °F 92% 30.24 in 0.2 mi Calm Calm - N/A Fog Fog
4:21 AM 34.0 °F - 32.0 °F 92% 30.23 in 0.2 mi Calm Calm - N/A Fog Fog
4:38 AM 33.1 °F - 30.9 °F 92% 30.23 in 0.2 mi Calm Calm - N/A Fog Fog
4:53 AM 32.0 °F 27.5 °F 30.0 °F 92% 30.24 in 0.2 mi ENE 4.6 mph - N/A Fog Fog
5:04 AM 33.1 °F 30.0 °F 30.9 °F 92% 30.23 in 0.2 mi ENE 3.5 mph - N/A Fog Fog
5:15 AM 33.1 °F 28.7 °F 30.9 °F 92% 30.24 in 0.2 mi ENE 4.6 mph - N/A Fog Fog
5:26 AM 33.1 °F 28.7 °F 30.9 °F 92% 30.24 in 0.2 mi ENE 4.6 mph - N/A Fog Fog
5:53 AM 33.1 °F - 32.0 °F 96% 30.25 in 0.2 mi Calm Calm - N/A Fog Fog
6:53 AM 32.0 °F - 30.0 °F 92% 30.26 in 0.2 mi Calm Calm - N/A Fog Fog
7:19 AM 33.1 °F 30.0 °F 30.9 °F 92% 30.25 in 0.5 mi SE 3.5 mph - N/A Fog Fog
7:35 AM 35.1 °F - 32.0 °F 89% 30.26 in 1.0 mi Calm Calm - N/A   Clear
7:53 AM 35.1 °F - 33.1 °F 92% 30.27 in 0.8 mi Calm Calm - N/A   Clear
8:03 AM 36.0 °F - 34.0 °F 93% 30.27 in 1.2 mi Calm Calm - N/A   Clear
8:31 AM 39.0 °F 35.7 °F 35.1 °F 86% 30.28 in 2.0 mi ENE 4.6 mph - N/A   Clear
8:53 AM 42.1 °F - 36.0 °F 79% 30.29 in 2.5 mi Calm Calm - N/A   Haze
9:08 AM 44.1 °F - 37.0 °F 76% 30.28 in 3.0 mi Calm Calm - N/A   Haze
9:53 AM 50.0 °F - 37.9 °F 63% 30.29 in 3.0 mi Calm Calm - N/A   Haze
10:53 AM 55.0 °F - 39.9 °F 57% 30.28 in 3.0 mi Calm Calm - N/A   Haze
11:53 AM 62.1 °F - 39.0 °F 43% 30.23 in 4.0 mi Calm Calm - N/A   Haze
12:53 PM 66.0 °F - 39.9 °F 38% 30.20 in 4.0 mi East 4.6 mph - N/A   Haze
1:53 PM 66.9 °F - 42.1 °F 40% 30.18 in 3.0 mi ENE 3.5 mph - N/A   Haze
2:53 PM 68.0 °F - 42.1 °F 39% 30.16 in 3.0 mi Calm Calm - N/A   Haze
3:53 PM 68.0 °F - 42.1 °F 39% 30.17 in 3.0 mi SE 4.6 mph - N/A   Haze
4:53 PM 64.9 °F - 39.9 °F 40% 30.17 in 3.0 mi Calm Calm - N/A   Haze
5:53 PM 59.0 °F - 41.0 °F 51% 30.17 in 4.0 mi WNW 3.5 mph - N/A   Haze
6:53 PM 50.0 °F - 37.9 °F 63% 30.18 in 4.0 mi Calm Calm - N/A   Haze
7:53 PM 48.9 °F - 39.9 °F 71% 30.19 in 3.0 mi Calm Calm - N/A   Haze
8:53 PM 48.0 °F - 39.0 °F 71% 30.20 in 3.0 mi Calm Calm - N/A   Haze
9:53 PM 45.0 °F - 37.9 °F 76% 30.20 in 3.0 mi Calm Calm - N/A   Haze
10:53 PM 44.1 °F - 36.0 °F 73% 30.20 in 3.0 mi Calm Calm - N/A   Haze
11:53 PM 41.0 °F - 36.0 °F 82% 30.19 in 3.0 mi Calm Calm - N/A   Haze